This is the latest recevied weather packets stored in our database for station/object KK7ISX. If no packets are shown the sender has not sent any weather packets the latest 10 day(s).
| Time | Temp. | Humidity | Pressure | Rain* | Wind** | Luminosity | Snow |
|---|---|---|---|---|---|---|---|
| 1777652475 | 17.22° C | 44% | 1021.4 hPa | 0 mm | - | 487 W/m² | - |
| 1777652172 | 17.78° C | 45% | 1021.5 hPa | 0 mm | - | 471 W/m² | - |
| 1777651863 | 16.67° C | 45% | 1021.5 hPa | 0 mm | - | 455 W/m² | - |
| 1777651560 | 16.67° C | 46% | 1021.5 hPa | 0 mm | - | 438 W/m² | - |
| 1777651257 | 16.67° C | 46% | 1021.5 hPa | 0 mm | - | 421 W/m² | - |
| 1777650953 | 16.11° C | 47% | 1021.5 hPa | 0 mm | - | 404 W/m² | - |
| 1777650651 | 16.11° C | 47% | 1021.5 hPa | 0 mm | - | 387 W/m² | - |
| 1777650348 | 16.11° C | 47% | 1021.5 hPa | 0 mm | - | 370 W/m² | - |
| 1777650045 | 16.11° C | 47% | 1021.5 hPa | 0 mm | - | 358 W/m² | - |
| 1777649742 | 15.56° C | 47% | 1021.4 hPa | 0 mm | - | 339 W/m² | - |
| 1777649439 | 15.56° C | 48% | 1021.5 hPa | 0 mm | - | 324 W/m² | - |
| 1777649136 | 15.56° C | 49% | 1021.5 hPa | 0 mm | - | 308 W/m² | - |
| 1777648833 | 15° C | 49% | 1021.3 hPa | 0 mm | - | 292 W/m² | - |
| 1777648530 | 15° C | 48% | 1021.3 hPa | 0 mm | - | 279 W/m² | - |
| 1777648227 | 15° C | 49% | 1021.3 hPa | 0 mm | - | 184 W/m² | - |
| 1777647922 | 15° C | 50% | 1021.3 hPa | 0 mm | - | 243 W/m² | - |
| 1777647618 | 14.44° C | 50% | 1021.3 hPa | 0 mm | - | 54 W/m² | - |
| 1777647309 | 13.89° C | 50% | 1021.2 hPa | 0 mm | - | 96 W/m² | - |
| 1777647008 | 13.89° C | 51% | 1021.3 hPa | 0 mm | - | 48 W/m² | - |
| 1777646703 | 13.33° C | 52% | 1021.1 hPa | 0 mm | - | 56 W/m² | - |
| 1777646399 | 13.33° C | 52% | 1021 hPa | 0 mm | - | 45 W/m² | - |
| 1777646095 | 12.78° C | 53% | 1021.2 hPa | 0 mm | - | 167 W/m² | - |
| 1777645792 | 12.78° C | 53% | 1020.9 hPa | 0 mm | - | 118 W/m² | - |
| 1777645490 | 12.78° C | 55% | 1021 hPa | 0 mm | - | 108 W/m² | - |
| 1777645185 | 12.22° C | 55% | 1021.2 hPa | 0 mm | - | 45 W/m² | - |
* Rain latest hour (hover to see other rain measurements)
** Current wind speed in m/s (hover to see current wind gust speed)